Regional Weather Roundup
Issued by NWS

Home | Current Version | Previous Version | Text Only | Print | Product List | Glossary Off
Versions: 1 2 3 4 5 6 7 8 9 10 11 12 13 14 15 16 17 18 19 20 21 22 23 24 25 26 27 28 29 30 31 32 33 34 35 36 37 38 39 40 41 42 43 44 45 46 47 48 49 50

000
ASUS45 KBOU 071810
RWRCO

WEATHER ROUNDUP FOR COLORADO
NATIONAL WEATHER SERVICE DENVER/BOULDER CO
1200 PM MDT TUE JUL 07 2015

NOTE: "FAIR" INDICATES FEW OR NO CLOUDS BELOW 12000 FEET WITH NO
SIGNIFICANT WEATHER AND/OR OBSTRUCTIONS TO VISIBILITY.

COZ001>005-013-030-031-071900-
...NORTHWEST COLORADO...

CITY           SKY/WX    TMP DP  RH WIND       PRES   REMARKS
CRAIG          CLOUDY    66  55  67 CALM      30.20F
HAYDEN         CLOUDY    63  48  59 CALM      30.21F
MEEKER         CLOUDY    65  54  67 NW5       30.20F
MOUNT WERNER   NOT AVBL
STEAMBOAT SPGS CLOUDY    64  53  68 NW3       30.22F
WALDEN         CLOUDY    59  46  63 CALM      30.28F
$$

COZ006>008-011-071900-
...WEST CENTRAL VALLEYS...

CITY           SKY/WX    TMP DP  RH WIND       PRES   REMARKS
GRAND JUNCTION LGT RAIN  63  58  83 NW10      30.13S
MONTROSE       PTSUNNY   73  49  42 SE5       30.20R
EAGLE          NOT AVBL
RIFLE          CLOUDY    67  56  67 CALM      30.17F
DELTA          PTSUNNY   80  46  29 SW6       30.13S
NUCLA          PTSUNNY   73  50  43 E9        30.23F
$$

COZ017>023-064>068-071900-
...SOUTHWEST COLORADO...

CITY           SKY/WX    TMP DP  RH WIND       PRES   REMARKS
DURANGO        MOSUNNY   68  57  68 E13       30.24F
CORTEZ         TSTM      67  59  75 CALM      30.20S
PAGOSA SPRINGS CLOUDY    57  53  86 CALM      30.34F
TELLURIDE      RAIN      50  48  92 NE3       30.44R
WOLF CREEK PAS NOT AVBL
$$

COZ009-010-012-014-032>034-037-058>063-071900-
...CENTRAL COLORADO...

CITY           SKY/WX    TMP DP  RH WIND       PRES   REMARKS
ASPEN          LGT RAIN  55  51  86 NW7       30.32R
BUENA VISTA    CLOUDY    60  51  74 S6        30.30F
COPPER MTN     TSTM      45  39  81 W23G30    30.53S VSB<1/4
BERTHOUD PASS  TSTM      39  30  70 N10G16    30.57S VSB 1/2
COTTONWOOD PAS NOT AVBL
GUNNISON       MOSUNNY   70  46  43 SW10G16   30.28F
KREMMLING      CLOUDY    64  50  59 W10G16    30.26S
LEADVILLE      TSTM      51  43  74 NW14G20   30.39R
MONARCH PASS   RAIN      45  43  93 SW14      30.63F VSB 3/4
SALIDA         PTSUNNY   65  54  66 SE13G22   30.34F
SUNLIGHT       CLOUDY    50  46  87 CALM      30.50S
WILKERSON PASS PTSUNNY   50  48  93 SW6       30.51F
$$

COZ069>075-071900-
...SAN LUIS VALLEY/SANGRE DE CRISTO MOUNTAINS...

CITY           SKY/WX    TMP DP  RH WIND       PRES   REMARKS
ALAMOSA        LGT RAIN  59  54  83 SW6       30.30S
LA VETA PASS   TSTM      45  43  93 MISG      30.46S VSB 1/2
SAGUACHE       CLOUDY    59  52  77 SE7       30.32F
$$

COZ035-036-038>040-071900-
...NORTHERN COLORADO FRONT RANGE...

CITY           SKY/WX    TMP DP  RH WIND       PRES   REMARKS
DENVER INTL AP PTSUNNY   71  53  52 SE16G23   30.17F HAZE
DMNS CITY PARK   N/A     66  55  66 NW10      30.15S
AURORA         PTSUNNY   69  54  58 S10       30.18F
FRONT RANGE AP PTSUNNY   66  54  63 SE22      30.19F HAZE
ERIE MUNI ARPT CLOUDY    66  57  73 N3        30.17F HAZE
BOULDER MUN AP CLOUDY    63  57  82 CALM      30.18S HAZE
CENTENNIAL     PTSUNNY   66  54  65 S20       30.18F HAZE
BROOMFIELD       N/A     64  57  77 NW8G21    30.19F FOG
FORT COLLINS   CLOUDY    64  55  72 NW3       30.18F
LONGMONT       CLOUDY    68  58  69 N5        30.18F HAZE
$$

COZ041-046-047-076>085-087-088-071900-
...PIKES PEAK/PALMER DIVIDE AND SOUTHERN FOOTHILLS...

CITY           SKY/WX    TMP DP  RH WIND       PRES   REMARKS
COLO. SPRINGS  CLOUDY    56  52  86 S13       30.28F FOG
A. F. ACADEMY  CLOUDY    53  52  99 S14       30.28F FOG
ELLICOTT       PTSUNNY  N/A N/A N/A S13       30.27S FOG
FALCON         CLOUDY    53  50  92 S14       30.31F FOG
FORT CARSON    CLOUDY    57  52  83 S13       30.26F FOG
LIMON          CLOUDY    64  51  62 S15G22    30.23F
MONUMENT HILL  CLOUDY    54  50  87 MISG      30.28F FOG
TRINIDAD       CLOUDY    64  52  64 SE8       30.25F HAZE
$$

COZ042>045-048>051-090-091-071900-
...NORTHEAST COLORADO...

CITY           SKY/WX    TMP DP  RH WIND       PRES   REMARKS
GREELEY ARPT   CLOUDY    70  52  52 S12       30.16F
AKRON          PTSUNNY   69  49  48 SE18G26   30.19F
BURLINGTON     SUNNY     70  44  39 SE12G20   30.22F
WRAY           SUNNY     74  44  33 SE13G21   30.19F
STERLING       PTSUNNY   70  50  49 S16       30.17F
HOLYOKE        SUNNY     73  50  43 SE13      30.19F
FORT MORGAN    PTSUNNY   71  49  46 SE16      30.18F
$$

COZ086-089-092>099-071900-
...SOUTHEAST COLORADO...

CITY           SKY/WX    TMP DP  RH WIND       PRES   REMARKS
PUEBLO         CLOUDY    65  53  65 SE7       30.22F HAZE
LA JUNTA       PTSUNNY   71  49  45 SE6       30.20F HAZE
LAMAR          MOSUNNY   72  47  40 E8        30.17F HAZE
SPRINGFIELD      N/A     68  51  54 E13       30.20F
$$


USA.gov is the U.S. government's official web portal to all federal, state and local government web resources and services.